Location: Newark
(20.1720°N, 90.0102°W)
Time: 17:56:57
(UTC+00:00)

OTV 5 (USA 277) - Visible Passes

Search period start: 21 July 2019 00:00
Search period end: 31 July 2019 00:00
Orbit: 299 x 335 km, 54.5° (Epoch: 13 July)

Date Brightness Start Highest point End Pass type
(mag) Time Alt. Az. Time Alt. Az. Time Alt. Az.
28 Jul ? 10:24:36 10° SE 10:25:26 11° ESE 10:26:16 10° ESE visible
29 Jul ? 10:38:12 18° SSW 10:39:51 50° SE 10:42:24 10° NE visible
30 Jul ? 10:52:52 16° WSW 10:54:23 27° NW 10:56:42 10° N visible
